Total_Precipitation_Accumulation
0.89 0.86 0.78 0.78 0.72 0.79 0.90 0.99 0.94 0.85 0.81 0.75 0.71 0.78 0.81 0.86 0.88 0.97 1.06 1.06 1.20 1.49 1.71 1.71 1.51 1.32 1.25 1.27 1.31 1.32 1.32 1.41 1.45 1.48 1.52 1.53 1.50 1.37 1.24 1.18 1.08 1.04 1.16
0.94 0.91 0.86 0.87 0.84 0.86 0.97 0.96 0.89 0.94 0.94 0.87 0.74 0.74 0.81 0.87 0.92 0.92 0.95 1.06 1.13 1.21 1.57 1.80 1.81 1.59 1.51 1.38 1.43 1.51 1.47 1.39 1.36 1.41 1.47 1.53 1.55 1.39 1.21 1.11 1.07 1.00 1.01
0.84 0.87 0.88 0.88 0.92 1.01 1.07 1.08 0.92 0.96 0.93 0.84 0.79 0.73 0.72 0.74 0.79 0.85 0.82 0.82 0.90 1.02 1.29 1.65 1.89 1.80 1.67 1.58 1.52 1.58 1.54 1.40 1.36 1.37 1.43 1.41 1.45 1.40 1.28 1.25 1.12 1.11 1.10
0.77 0.90 0.91 0.89 0.92 1.05 1.14 1.17 1.08 1.05 1.00 0.96 0.92 0.84 0.76 0.78 0.76 0.82 0.83 0.76 0.89 0.84 1.01 1.19 1.42 1.61 1.68 1.69 1.62 1.64 1.56 1.31 1.22 1.32 1.38 1.31 1.34 1.36 1.20 1.27 1.17 1.13 1.11
0.84 1.01 1.11 1.13 1.13 1.14 1.14 1.08 1.14 1.14 1.12 1.11 1.03 0.97 0.88 0.82 0.86 0.80 0.83 0.85 0.80 0.84 0.93 0.81 0.89 1.02 1.34 1.57 1.67 1.84 1.78 1.41 1.23 1.29 1.40 1.25 1.21 1.30 1.15 1.17 1.17 1.08 1.03
1.19 1.33 1.33 1.40 1.47 1.36 1.33 1.26 1.26 1.23 1.16 1.20 1.09 0.98 0.91 0.82 0.90 0.94 0.93 0.93 0.89 0.82 0.91 0.86 0.81 0.73 0.89 1.17 1.48 1.82 2.04 1.68 1.40 1.32 1.43 1.32 1.22 1.29 1.15 1.15 1.20 1.04 0.98
1.52 1.73 1.69 1.74 1.78 1.66 1.63 1.67 1.86 1.82 1.55 1.31 1.34 1.17 0.99 0.83 0.96 1.00 0.98 0.99 1.01 1.07 1.11 1.00 0.86 0.84 0.73 0.75 0.94 1.41 2.04 1.92 1.67 1.50 1.49 1.44 1.23 1.19 1.08 1.10 1.22 1.13 0.97
1.44 1.58 1.83 1.93 1.86 1.89 2.01 2.02 2.35 2.50 2.07 1.64 1.63 1.74 1.48 1.26 1.01 0.89 0.94 0.96 1.06 1.25 1.24 1.05 0.95 0.86 0.80 0.80 0.61 0.85 1.47 1.78 1.79 1.71 1.60 1.48 1.34 1.18 1.14 1.20 1.17 1.21 1.11
1.41 1.51 1.67 1.83 1.84 1.91 2.01 2.13 2.45 2.91 2.68 2.14 1.90 2.09 1.79 1.58 1.39 1.06 0.92 0.94 1.06 1.26 1.37 1.28 1.18 1.10 0.94 0.95 0.83 0.72 0.91 1.20 1.68 1.87 1.82 1.64 1.52 1.30 1.24 1.36 1.17 1.22 1.26
1.31 1.37 1.51 1.66 1.78 1.81 1.94 2.04 2.16 2.62 2.95 2.63 2.34 1.99 1.66 1.58 1.68 1.50 1.16 1.07 1.12 1.20 1.27 1.22 1.19 1.29 1.20 1.09 0.96 0.77 0.78 0.84 1.26 1.68 1.93 1.90 1.76 1.59 1.53 1.61 1.37 1.29 1.32
1.40 1.39 1.54 1.61 1.63 1.69 1.79 2.12 2.38 2.63 2.82 2.76 2.65 2.47 2.21 1.92 1.58 1.70 1.64 1.39 1.25 1.17 1.20 1.24 1.24 1.27 1.28 1.24 1.29 1.00 0.79 0.77 0.84 1.24 1.79 2.12 2.08 1.95 1.88 1.93 1.73 1.56 1.49
1.49 1.54 1.60 1.61 1.58 1.61 1.72 1.94 2.22 2.43 2.74 2.90 2.79 2.57 2.43 2.30 2.08 1.93 1.71 1.60 1.56 1.33 1.26 1.26 1.21 1.24 1.33 1.42 1.37 1.35 0.95 0.72 0.67 0.83 1.22 1.71 2.03 2.12 2.10 2.11 2.01 1.96 1.84
1.39 1.42 1.53 1.65 1.73 1.76 1.88 2.05 2.19 2.10 2.32 2.69 2.68 2.53 2.43 2.21 2.18 2.21 2.03 1.74 1.62 1.33 1.24 1.20 1.16 1.27 1.27 1.29 1.48 1.65 1.16 0.83 0.65 0.72 0.81 1.05 1.40 1.76 2.07 2.26 2.30 2.25 2.21
1.35 1.29 1.34 1.45 1.58 1.75 1.80 1.85 1.86 1.83 1.96 2.20 2.29 2.46 2.56 2.32 2.16 2.03 1.93 1.98 1.76 1.48 1.31 1.20 1.11 1.13 1.18 1.22 1.42 1.59 1.21 1.01 0.74 0.65 0.67 0.79 0.93 1.10 1.41 1.77 2.15 2.25 2.34
1.11 1.04 1.04 1.09 1.17 1.26 1.33 1.49 1.58 1.69 1.73 1.86 2.02 2.14 2.28 2.37 2.27 2.04 1.95 1.94 1.90 1.71 1.49 1.38 1.23 1.05 1.17 1.28 1.46 1.30 1.18 1.17 0.98 0.79 0.69 0.71 0.76 0.82 0.95 1.04 1.23 1.49 1.79
1.03 0.96 0.92 0.88 0.85 0.84 0.89 1.07 1.26 1.39 1.49 1.64 1.83 1.95 1.97 2.03 2.21 2.17 1.98 1.96 1.88 1.74 1.60 1.42 1.31 1.18 1.37 1.29 1.40 1.25 1.26 1.32 1.04 0.92 0.83 0.77 0.74 0.67 0.65 0.67 0.66 0.73 0.89
1.01 1.00 0.92 0.85 0.92 0.92 0.89 0.95 1.02 1.08 1.14 1.29 1.44 1.57 1.72 1.97 2.26 2.27 2.21 2.08 1.96 1.81 1.58 1.43 1.22 1.15 1.47 1.56 1.45 1.32 1.28 1.26 1.04 0.95 0.88 0.81 0.77 0.70 0.64 0.58 0.56 0.56 0.62
0.69 0.78 0.87 0.82 0.80 0.83 0.86 0.92 0.95 0.99 1.01 1.09 1.19 1.32 1.50 1.78 2.12 2.33 2.40 2.29 2.13 1.98 1.84 1.68 1.34 1.10 1.23 1.57 1.70 1.62 1.39 1.23 1.11 1.03 0.92 0.83 0.78 0.71 0.65 0.62 0.60 0.58 0.57
0.52 0.57 0.66 0.67 0.76 0.83 0.86 0.88 0.90 0.94 0.96 1.04 1.19 1.24 1.30 1.49 1.68 1.89 2.07 2.19 2.18 2.15 2.13 1.89 1.58 1.31 1.25 1.38 1.63 1.65 1.56 1.51 1.29 1.22 1.22 1.10 0.97 0.87 0.76 0.67 0.65 0.62 0.57
0.54 0.61 0.73 0.78 0.73 0.71 0.76 0.86 0.90 0.86 0.85 0.88 0.97 1.06 1.16 1.21 1.36 1.50 1.61 1.80 2.01 2.24 2.32 2.18 1.91 1.59 1.46 1.35 1.46 1.61 1.68 1.62 1.53 1.34 1.30 1.20 1.19 1.12 1.00 0.85 0.71 0.65 0.65
0.61 0.63 0.73 0.83 0.90 0.85 0.82 0.91 0.88 0.86 0.85 0.84 0.89 0.89 0.95 0.98 1.04 1.22 1.27 1.48 1.81 2.07 2.19 2.26 2.13 1.83 1.56 1.39 1.18 1.28 1.54 1.76 1.75 1.65 1.65 1.42 1.29 1.16 1.07 1.03 0.96 0.83 0.74
0.51 0.50 0.54 0.61 0.70 0.74 0.94 0.90 0.75 0.71 0.77 0.83 0.88 0.87 0.89 0.83 0.82 0.88 1.01 1.14 1.44 1.65 1.79 1.87 1.89 1.73 1.52 1.38 1.33 1.30 1.37 1.51 1.56 1.44 1.47 1.56 1.50 1.36 1.26 1.14 1.16 1.19 1.11
0.42 0.39 0.39 0.39 0.45 0.60 0.69 0.54 0.53 0.58 0.72 0.84 0.91 0.93 0.89 0.84 0.88 0.89 0.91 0.93 1.00 1.17 1.39 1.59 1.61 1.51 1.56 1.47 1.39 1.29 1.31 1.33 1.31 1.41 1.47 1.52 1.52 1.42 1.35 1.34 1.37 1.28 1.22
0.31 0.31 0.38 0.45 0.47 0.49 0.56 0.46 0.45 0.55 0.75 0.88 0.88 0.84 0.90 0.91 0.94 1.00 0.93 1.00 0.96 0.94 1.03 1.08 1.22 1.41 1.56 1.72 1.69 1.58 1.59 1.53 1.44 1.53 1.55 1.49 1.39 1.32 1.23 1.21 1.28 1.16 1.08
0.35 0.38 0.49 0.56 0.50 0.44 0.49 0.49 0.55 0.69 0.81 0.90 0.87 0.86 0.93 0.98 1.10 1.15 1.06 1.11 1.08 1.04 1.01 1.12 1.21 1.32 1.39 1.50 1.65 1.69 1.65 1.61 1.48 1.41 1.42 1.36 1.26 1.28 1.27 1.15 1.08 1.08 0.99
0.32 0.40 0.42 0.39 0.40 0.46 0.52 0.51 0.64 0.82 0.94 1.04 1.00 0.99 1.18 1.13 1.10 1.05 1.03 1.18 1.15 1.00 0.93 0.97 1.03 1.11 1.14 1.24 1.35 1.39 1.52 1.59 1.50 1.36 1.19 1.17 1.18 1.22 1.26 1.16 1.04 0.97 0.93